W6OLF Weather Reports


Display with metric or nautical units.
time (UTC)temp
F
wind
direction
speed
MPH
gust
MPH
rain 1hr
in
rain 24hr
in
rain mn
in
humidity
%
barometer
mb
20260503233014 78 352 0.0 8.0 0.00 0.00 0.00 39 1009.4
20260503231512 78 238 0.0 7.0 0.00 0.00 0.00 36 1009.6
20260503230010 79 149 0.0 7.0 0.00 0.00 0.00 37 1009.8
20260503223008 78 32 0.0 5.0 0.00 0.00 0.00 36 1010.2
20260503221505 78 120 1.0 5.0 0.00 0.00 0.00 37 1010.3
20260503220010 78 113 0.0 8.0 0.00 0.00 0.00 40 1010.6
20260503213003 77 245 0.0 7.0 0.00 0.00 0.00 38 1010.7
20260503211559 77 47 0.0 8.0 0.00 0.00 0.00 38 1010.9
20260503210104 77 137 0.0 5.0 0.00 0.00 0.00 38 1011.0
20260503203102 76 192 0.0 8.0 0.00 0.00 0.00 44 1011.4
20260503201554 75 224 0.0 3.0 0.00 0.00 0.00 45 1011.5
20260503200056 75 91 0.0 7.0 0.00 0.00 0.00 46 1011.7
20260503193053 76 126 0.0 4.0 0.00 0.00 0.00 48 1012.0
20260503191549 76 359 0.0 2.0 0.00 0.00 0.00 51 1012.1
20260503190047 73 70 0.0 6.0 0.00 0.00 0.00 47 1012.3
20260503183054 72 123 0.0 4.0 0.00 0.00 0.00 53 1012.6
20260503181539 72 91 0.0 4.0 0.00 0.00 0.00 50 1012.6
20260503180037 71 143 0.0 9.0 0.00 0.00 0.00 50 1012.7
20260503173035 70 195 0.0 8.0 0.00 0.00 0.00 52 1012.8
20260503171533 70 195 0.0 1.0 0.00 0.00 0.00 56 1012.9
20260503090104 58 115 0.0 0.0 0.00 0.00 0.00 61 1013.4
20260503081627 59 116 0.0 0.0 0.00 0.00 0.00 58 1013.4
20260503080110 60 116 0.0 0.0 0.00 0.00 0.00 57 1013.4
20260503071550 61 116 0.0 0.0 0.00 0.00 0.00 53 1013.3
20260503053015 62 116 0.0 0.0 0.00 0.00 0.00 53 1013.0
20260503051513 63 116 0.0 0.0 0.00 0.00 0.00 53 1012.9
20260503050026 63 116 0.0 0.0 0.00 0.00 0.00 56 1012.9
20260503043047 65 60 0.0 3.0 0.00 0.00 0.00 50 1012.6
20260503041548 65 36 0.0 1.0 0.00 0.00 0.00 50 1012.5
20260503040049 65 143 0.0 0.0 0.00 0.00 0.00 52 1012.3
20260503033059 67 79 0.0 2.0 0.00 0.00 0.00 49 1011.9
20260503031554 67 7 0.0 6.0 0.00 0.00 0.00 47 1011.8
20260503030045 68 74 0.0 5.0 0.00 0.00 0.00 48 1011.7
20260503023044 69 98 1.0 5.0 0.00 0.00 0.00 46 1011.7
20260503021545 70 57 0.0 3.0 0.00 0.00 0.00 46 1011.7
20260503020048 70 96 0.0 8.0 0.00 0.00 0.00 45 1011.7
20260503013045 72 74 0.0 1.0 0.00 0.00 0.00 44 1011.7
20260503011546 73 46 0.0 8.0 0.00 0.00 0.00 44 1011.9
20260503010043 74 257 0.0 5.0 0.00 0.00 0.00 41 1011.8
20260503003040 74 78 0.0 4.0 0.00 0.00 0.00 45 1012.0
20260503001542 74 108 0.0 7.0 0.00 0.00 0.00 43 1012.1
20260503000039 74 167 0.0 6.0 0.00 0.00 0.00 44 1012.3